GFSGBSN_sfc_temp_033.txt.gz
Temp
65 65 65 65 64 64 63 63 63 64 64 64 64 64 64 64 64 64 65 65 65 66 66 66 66 66 63 61 63 76 81 79 76 75 72 69 64 60 57 59 62 56 60 65 66 65 63
64 64 64 64 64 64 63 63 62 63 63 63 64 63 64 64 63 64 64 64 65 66 65 66 66 66 61 57 74 75 76 76 76 73 70 69 64 64 59 58 57 59 61 62 63 63 61
64 64 64 64 64 64 64 63 62 62 63 63 63 63 63 63 63 63 64 64 64 64 65 66 66 67 62 62 73 72 76 72 74 72 68 69 67 62 60 58 63 61 57 59 60 62 62
65 64 64 64 64 63 63 63 62 62 62 62 63 63 63 62 63 63 63 63 63 64 65 66 66 61 58 73 71 74 75 73 74 73 71 70 69 64 60 62 59 54 52 48 59 62 62
64 64 64 63 63 63 63 63 62 62 61 62 62 62 62 62 62 63 63 63 64 66 66 67 61 59 57 76 69 72 71 69 71 71 70 79 68 59 60 51 48 49 43 45 54 59 59
63 63 63 63 63 63 62 63 62 62 61 62 62 62 62 62 62 62 62 63 65 66 67 70 70 59 65 63 68 71 69 71 67 67 65 64 56 51 49 48 42 43 43 46 47 56 57
63 63 62 62 62 62 62 62 62 62 61 61 61 61 61 61 62 62 61 61 61 60 63 58 59 61 65 69 71 68 71 69 66 62 52 56 51 46 50 52 52 49 46 45 49 56 52
63 63 62 62 62 62 62 61 62 62 61 61 61 61 61 61 61 61 59 60 59 62 57 65 65 65 68 67 62 67 71 61 59 52 54 51 46 55 57 56 53 50 46 45 50 55 52
63 62 62 62 62 61 61 61 61 61 61 61 61 61 61 61 61 60 61 62 65 64 56 61 65 64 65 67 60 63 67 60 55 52 51 47 53 60 58 52 51 48 46 44 46 50 50
62 62 62 61 61 61 61 61 61 61 61 61 61 61 61 62 60 61 61 65 65 65 48 54 60 64 67 66 60 69 68 61 57 51 51 50 58 57 52 51 51 44 52 51 49 44 38
62 62 61 61 61 61 60 60 61 61 60 60 61 61 61 62 60 61 63 64 63 63 38 57 60 70 65 61 61 62 65 62 52 52 52 49 51 51 50 51 53 49 53 50 47 42 37
62 62 61 61 60 60 60 60 60 61 60 60 60 60 60 61 60 61 63 62 62 49 39 52 60 58 58 60 59 61 59 60 57 53 51 50 57 54 52 55 54 54 48 45 41 38 31
62 61 61 60 60 60 60 60 61 61 61 60 60 60 61 66 60 62 62 59 47 40 54 50 52 56 53 52 55 54 49 44 42 41 38 46 50 54 56 49 52 49 39 32 33 31 33
61 61 60 60 60 60 60 60 61 61 60 59 59 62 63 66 61 62 59 53 37 48 47 55 54 53 49 51 51 50 46 41 45 41 37 36 39 48 54 48 42 42 39 32 30 28 30
61 61 60 60 60 59 60 60 61 60 60 58 60 57 57 61 63 60 55 42 42 45 51 50 52 46 45 50 49 46 40 40 42 41 37 36 38 49 52 51 48 41 36 40 34 30 27
61 61 60 60 59 59 59 60 61 60 59 59 55 54 57 62 60 57 48 43 43 51 51 50 45 46 43 44 44 42 40 43 44 45 43 38 34 43 49 50 49 43 46 35 32 27 25
61 61 60 60 59 58 59 60 60 60 58 58 55 53 60 59 59 51 43 41 48 53 53 48 44 44 43 42 42 39 40 43 46 45 44 38 36 39 42 39 37 39 37 36 35 30 26
60 60 60 60 59 58 58 59 59 58 57 56 51 49 58 58 49 38 41 46 52 49 51 49 47 45 43 42 40 39 40 42 46 45 39 38 34 29 37 43 44 41 36 35 27 27 24
60 60 60 59 58 58 58 59 59 57 56 52 49 49 55 57 44 37 41 46 47 47 46 46 45 46 45 42 37 40 40 45 46 43 39 40 32 26 32 38 40 36 38 37 31 26 20
60 60 60 59 58 58 58 58 58 57 57 52 49 48 50 45 41 41 40 40 42 47 46 47 45 46 43 40 42 39 39 44 45 45 52 45 31 31 28 32 33 32 35 36 32 17 23
59 59 59 59 58 58 58 58 58 57 57 52 44 42 43 41 44 40 40 42 41 41 45 45 42 43 41 37 38 39 40 40 43 49 41 38 30 30 33 35 34 34 35 34 31 30 26
59 59 59 59 58 58 57 57 57 56 56 46 47 45 41 40 42 40 41 39 44 42 43 41 40 43 40 37 39 37 39 38 37 39 38 36 29 29 28 33 33 31 34 34 35 35 34
59 59 59 59 58 58 57 57 56 55 54 45 41 44 47 42 40 40 40 42 45 45 43 45 44 41 38 41 41 39 39 39 38 37 34 33 29 24 19 29 29 27 33 34 33 35 35
59 59 59 59 58 57 57 58 57 55 51 45 41 43 45 41 42 44 45 46 44 43 42 44 43 40 43 45 43 39 36 38 38 38 38 30 29 26 18 24 18 36 38 38 36 38 39
60 60 59 59 58 57 57 57 57 56 54 44 42 43 43 40 42 43 45 43 42 40 40 43 43 43 44 41 34 33 32 32 36 37 35 35 30 21 16 16 27 35 36 35 33 33 40
60 60 59 59 58 57 57 57 57 56 55 45 42 42 42 42 43 47 44 42 39 35 37 40 42 42 42 36 32 22 26 30 31 31 35 34 33 26 21 12 13 33 38 42 39 27 38
59 59 59 59 59 58 57 57 57 56 56 47 44 44 43 41 43 44 42 42 42 37 36 36 39 38 39 31 27 23 26 32 27 29 27 26 25 23 22 14 24 37 40 41 24 28 38
59 59 59 59 58 58 58 57 57 56 56 48 44 45 43 39 42 47 49 44 41 39 36 38 37 35 31 28 26 26 23 30 26 29 29 26 21 20 22 15 18 39 38 33 36 36 38
58 59 59 60 58 57 57 57 57 56 56 50 43 47 47 41 44 46 48 49 49 48 41 37 39 35 36 31 28 25 26 23 27 24 32 28 35 25 28 28 38 39 38 40 39 37 36

GFSGBSN_sfc_temp_036.txt.gz
Temp
64 64 64 64 64 63 63 63 63 63 63 64 64 64 64 64 64 64 64 64 65 66 66 66 66 66 62 61 62 75 80 78 74 73 70 67 63 59 56 57 60 54 58 63 64 62 60
64 64 63 63 63 63 63 63 63 62 63 63 64 63 63 63 63 63 64 64 65 65 65 65 66 66 59 56 72 74 74 74 74 72 68 68 62 62 58 56 55 57 58 59 60 62 61
64 64 63 63 63 63 63 63 63 62 62 63 63 63 63 63 63 63 63 64 64 64 64 65 66 66 61 60 70 70 74 70 71 70 67 67 66 61 58 55 60 58 56 57 58 60 58
64 64 64 64 63 63 63 62 62 62 62 62 62 63 63 62 62 63 63 63 63 63 64 66 66 60 57 71 70 72 73 70 73 71 70 68 68 63 58 59 58 52 51 46 56 59 60
64 63 63 63 63 63 62 63 62 62 61 62 62 62 62 62 62 62 63 63 64 65 66 67 60 57 55 74 68 69 69 67 69 70 70 76 67 57 58 50 47 47 42 44 52 57 56
63 63 63 62 62 62 62 62 62 61 61 61 62 61 61 62 62 62 62 63 65 65 66 68 69 58 64 61 67 69 67 70 66 64 64 62 55 50 48 47 41 40 41 44 45 53 50
63 63 62 62 62 62 62 62 61 61 61 61 61 61 61 61 62 62 60 59 59 59 61 56 57 60 62 67 69 67 68 66 64 61 51 54 50 45 48 49 50 48 44 43 47 53 46
63 62 62 62 62 62 62 61 61 61 61 61 61 61 61 61 61 61 58 59 58 61 56 63 63 63 66 65 60 66 68 59 57 50 52 50 45 52 55 54 51 48 43 42 48 53 47
63 62 62 61 61 61 61 61 61 61 61 61 61 61 61 61 61 59 59 60 63 62 55 59 63 62 63 65 58 61 65 58 54 50 49 45 51 58 55 50 49 46 43 42 45 48 46
62 62 62 61 61 61 60 60 61 61 61 61 61 61 61 61 59 59 59 63 63 63 47 52 58 61 64 64 58 66 64 59 55 49 49 48 56 54 51 49 49 42 50 49 47 42 36
62 62 61 61 61 61 60 60 60 61 60 60 61 61 61 62 59 59 61 62 61 62 38 55 58 68 63 60 60 60 62 61 50 50 50 46 49 50 48 49 51 48 50 46 45 40 35
62 62 61 61 60 60 60 60 60 61 60 60 61 61 61 60 59 59 61 60 61 48 38 50 58 56 56 58 57 59 57 58 55 51 49 48 54 51 50 53 52 52 46 42 38 36 31
62 61 61 60 60 60 60 60 61 61 61 60 60 60 60 64 59 60 61 58 47 40 52 48 50 54 52 50 52 51 48 43 41 39 38 46 47 52 53 47 50 47 38 33 34 32 32
61 61 61 60 60 60 60 61 61 61 61 60 59 61 61 64 59 60 58 53 36 46 45 53 52 51 47 49 47 47 44 40 42 39 36 37 40 46 51 45 40 40 38 32 30 29 30
61 61 61 60 59 59 60 61 61 61 60 59 60 56 57 59 61 59 54 42 40 43 49 48 50 44 43 48 47 44 38 39 40 39 36 34 38 47 49 48 46 39 35 39 33 28 26
61 61 61 60 59 59 60 60 61 60 59 59 54 53 55 58 58 57 49 44 42 49 50 49 44 44 41 42 42 40 37 41 42 44 40 36 34 41 47 48 47 42 45 34 30 27 25
61 61 60 60 59 58 59 60 60 59 59 59 54 52 58 55 57 51 44 40 46 51 51 46 44 43 42 41 41 38 39 42 45 43 42 37 35 37 40 38 36 39 35 35 33 30 26
60 60 60 60 58 58 58 59 59 58 57 56 50 48 56 55 49 36 40 44 52 47 50 47 46 44 42 41 39 37 39 41 45 44 37 36 33 30 35 40 42 38 35 35 27 27 23
60 60 60 59 58 58 58 58 58 57 56 52 48 47 54 56 43 36 40 45 46 46 44 45 43 44 44 41 36 38 39 44 44 42 38 38 32 28 34 36 39 35 37 35 29 26 20
60 60 60 59 58 57 57 58 58 57 57 51 48 47 48 43 39 40 39 39 40 46 45 45 43 44 41 38 40 37 38 43 44 44 51 44 31 32 29 32 33 32 33 34 31 18 24
59 59 60 59 58 58 58 58 57 57 57 52 43 42 41 41 42 39 39 41 40 41 43 43 40 42 40 35 36 36 38 38 42 48 40 37 30 28 31 34 33 33 34 33 30 29 28
59 59 59 59 58 58 58 57 57 56 56 45 46 44 40 38 41 38 40 38 43 41 42 40 39 42 39 36 39 37 38 35 36 37 36 34 29 28 28 31 30 30 34 34 35 35 33
60 59 59 59 58 58 57 57 56 55 53 45 40 42 46 41 39 39 39 41 44 44 42 43 42 40 37 40 40 38 39 38 38 36 34 31 28 24 21 27 29 27 33 33 32 33 34
60 59 59 59 58 58 58 58 57 55 50 44 40 42 45 40 41 43 44 45 43 42 41 42 42 39 40 43 41 39 36 36 36 36 37 29 28 26 19 24 19 36 37 37 35 36 37
60 60 59 59 58 58 57 58 57 56 53 43 40 43 42 39 40 41 43 42 40 40 39 41 42 40 43 39 35 33 32 31 33 35 34 34 30 21 16 16 28 36 34 34 32 34 40
60 59 59 59 58 58 57 57 57 56 54 44 41 41 42 43 42 45 43 40 38 35 37 38 41 41 41 35 32 23 27 30 30 29 33 33 31 26 20 11 15 33 37 40 38 28 37
59 61 60 59 58 58 57 57 57 56 55 46 43 42 43 41 43 43 42 41 41 36 35 35 37 37 37 31 27 23 26 31 27 28 25 25 25 23 20 14 24 36 39 40 26 33 36
58 59 61 60 59 58 58 57 57 56 56 47 43 44 43 39 42 46 48 42 39 38 37 36 36 34 31 28 25 26 23 30 25 29 28 26 22 20 21 15 19 39 36 33 37 35 37
58 58 58 58 60 59 57 57 57 56 55 50 43 46 45 41 44 43 46 47 48 47 41 35 38 34 36 30 26 25 26 23 27 24 29 26 33 25 27 27 38 41 39 39 39 37 36

GFSGBSN_sfc_temp_042.txt.gz
Temp
65 65 65 65 64 63 63 63 62 63 63 64 64 64 64 64 64 65 65 65 65 66 66 66 66 66 73 77 75 86 79 83 87 85 81 81 81 79 76 76 76 75 74 75 74 72 72
65 65 64 64 64 63 62 62 62 62 63 63 63 64 64 64 64 64 64 64 65 65 65 65 66 66 75 74 84 85 84 82 85 84 81 82 79 79 77 74 75 74 73 73 74 72 71
65 65 64 64 63 63 63 63 63 62 62 62 63 64 64 64 63 63 64 64 64 65 65 65 66 73 77 75 85 87 84 83 83 83 79 81 81 80 77 72 74 73 71 73 72 72 67
64 64 64 64 63 62 63 63 63 63 62 63 63 63 64 63 63 63 63 63 63 64 65 66 66 76 74 84 88 84 86 84 85 85 82 81 82 77 76 75 73 71 71 66 69 71 68
64 64 63 63 63 63 63 63 63 62 62 62 63 63 63 63 62 63 63 63 64 65 66 67 74 78 72 81 81 83 85 80 81 82 81 81 79 73 73 72 70 69 68 65 65 68 68
63 63 63 63 62 62 63 62 62 62 62 62 62 62 62 62 62 62 63 63 66 68 71 75 77 75 77 74 79 80 84 81 78 77 76 76 76 73 72 71 63 65 65 64 64 66 66
63 63 63 62 62 62 62 62 62 61 61 62 62 61 61 61 62 62 67 75 74 73 77 71 72 72 74 79 81 79 81 79 78 76 71 70 70 68 68 67 67 66 63 62 64 64 62
63 63 63 62 62 62 61 61 61 61 61 61 61 61 61 61 61 61 70 73 71 74 68 73 73 74 76 78 73 77 82 74 72 68 68 69 66 67 68 66 65 64 62 63 62 62 62
63 63 62 61 62 62 61 61 61 61 61 61 61 61 61 61 61 67 74 71 74 75 72 70 73 74 74 77 70 71 76 72 69 66 66 66 65 67 65 63 63 63 61 61 60 60 60
63 62 61 61 61 61 61 60 61 61 61 61 61 61 62 62 65 74 72 73 75 75 68 63 68 72 75 75 67 73 74 71 68 65 65 65 66 64 63 62 63 59 62 60 58 57 56
62 62 61 61 61 61 60 60 60 61 61 61 61 61 61 60 74 74 72 75 75 75 54 64 68 79 74 70 69 68 71 71 65 64 64 62 61 61 61 62 63 59 60 58 57 57 56
62 62 61 61 61 61 60 60 61 61 61 61 61 61 61 68 76 71 74 74 76 63 52 59 67 66 67 67 66 68 68 71 67 63 64 62 65 64 63 62 61 61 58 56 56 56 50
62 61 61 61 61 61 61 61 61 62 61 61 61 61 66 73 72 73 74 75 63 56 62 58 60 64 64 61 62 62 60 60 59 56 57 59 60 62 62 59 61 61 58 55 51 50 53
61 61 60 60 60 60 61 61 61 62 62 61 60 62 65 70 72 72 76 70 55 57 59 61 61 61 60 60 58 58 57 57 56 56 58 57 52 57 60 59 57 56 56 55 46 52 54
61 61 60 60 60 60 60 61 61 61 61 59 59 75 75 72 70 74 73 61 60 59 60 59 60 57 57 58 59 57 56 56 54 55 55 56 53 57 57 59 59 55 54 55 51 49 48
61 61 60 59 59 59 60 61 61 61 60 59 75 75 71 70 71 75 69 57 58 58 59 59 57 58 56 57 56 56 55 54 52 53 56 54 53 54 56 58 57 56 58 51 54 46 45
61 61 60 60 59 58 59 60 60 60 60 59 74 71 71 70 74 73 63 59 56 58 59 57 57 55 57 55 56 56 54 52 54 52 55 54 52 51 54 53 55 52 53 52 52 52 48
61 61 60 59 59 58 59 59 59 58 59 65 71 66 70 72 67 62 62 57 54 56 59 57 58 57 56 54 54 54 53 52 53 55 52 52 53 52 54 53 53 54 54 56 50 48 49
61 60 60 59 59 58 58 58 58 57 57 74 70 68 72 71 63 61 55 54 55 55 55 56 54 55 56 54 51 52 51 51 52 52 51 53 52 51 50 50 51 50 52 52 48 48 45
60 60 60 59 59 58 58 58 57 58 58 72 69 64 68 67 61 62 56 54 52 54 54 55 54 56 54 52 53 50 50 50 52 53 51 52 50 50 50 49 51 48 48 49 51 44 50
60 60 60 60 59 58 58 58 57 57 58 72 64 59 56 62 60 59 59 56 53 52 55 56 53 54 54 51 51 51 50 49 50 52 51 52 48 47 51 49 47 48 49 48 46 51 46
60 60 60 59 59 58 58 57 57 56 57 66 66 63 59 58 57 59 53 55 55 52 55 53 53 53 54 53 54 51 52 51 52 50 50 48 47 44 45 43 43 41 47 48 48 48 49
60 59 59 59 59 58 58 57 56 54 58 67 58 60 65 49 56 60 58 55 55 56 53 55 54 54 51 52 54 54 55 52 54 51 49 47 46 43 42 42 43 43 49 51 51 51 50
60 59 59 59 58 58 58 58 57 55 56 66 59 64 66 56 58 58 55 55 54 54 54 52 54 54 52 55 54 54 53 50 51 47 50 45 45 45 39 43 35 50 54 51 50 52 52
60 60 59 59 58 58 58 58 57 55 54 59 57 62 65 58 58 54 54 54 54 53 52 52 51 52 56 53 51 47 47 45 43 43 45 47 47 41 36 38 47 52 49 47 45 50 56
59 61 59 59 58 57 57 57 57 56 54 58 54 55 63 61 58 58 55 55 56 55 51 48 51 55 54 53 50 39 45 47 44 40 43 43 46 43 38 30 32 50 47 50 49 43 56
59 60 60 59 59 58 57 57 57 56 55 60 56 54 61 61 58 58 58 56 55 54 55 51 50 49 51 51 46 42 46 45 43 42 38 39 40 35 38 32 41 52 50 50 39 47 55
58 58 59 59 59 59 57 57 57 56 56 59 56 56 57 60 57 56 57 54 52 56 55 49 50 48 49 45 45 47 42 47 43 47 41 40 37 37 38 31 31 52 48 44 56 55 53
57 57 57 57 57 58 57 57 57 56 55 55 57 56 55 59 55 53 55 55 55 58 57 50 52 51 55 51 48 47 41 42 44 41 45 39 49 45 43 43 53 53 56 59 54 53 54

GFSGBSN_sfc_temp_045.txt.gz
Temp
65 65 65 65 64 64 64 64 63 64 64 64 64 64 64 65 65 65 65 65 65 66 66 66 66 67 74 78 80 90 82 86 91 90 87 85 85 84 80 81 82 80 78 78 78 77 77
64 64 64 64 64 63 63 63 63 63 63 63 63 64 64 64 64 64 64 65 65 65 65 66 66 65 74 75 89 91 89 89 89 88 86 87 84 85 82 79 79 80 78 77 77 76 76
65 64 64 64 63 63 63 63 62 63 63 63 63 64 64 64 64 64 64 64 65 65 65 65 66 76 80 78 90 92 89 86 88 87 82 86 86 84 83 77 80 79 74 75 76 76 72
64 64 64 64 64 63 63 63 63 62 63 63 63 63 64 64 63 63 63 64 64 64 65 66 66 80 79 88 93 89 90 87 89 90 86 86 87 83 81 81 78 75 76 69 74 75 72
64 64 64 63 63 63 62 63 63 63 63 63 63 63 63 63 63 63 63 64 64 65 66 67 75 79 76 82 84 88 89 84 85 86 85 86 84 80 78 75 73 74 69 71 67 75 74
64 64 63 63 63 62 63 63 62 62 62 63 63 63 62 62 62 62 63 63 65 67 71 81 83 78 79 78 83 85 89 86 82 81 79 79 79 75 76 74 64 69 70 72 69 71 71
64 63 63 63 62 62 62 62 62 62 62 62 62 62 61 61 62 62 66 76 75 75 80 76 78 76 79 84 86 83 85 83 82 79 74 76 72 70 76 75 73 72 69 68 72 71 65
63 63 63 62 62 62 62 62 62 62 62 61 62 62 61 61 62 62 72 77 75 79 71 78 78 79 82 84 76 80 86 77 76 72 75 72 69 73 72 71 70 70 68 68 71 68 66
62 62 62 61 61 62 62 61 61 61 61 62 62 61 61 61 61 67 78 77 81 82 76 73 77 78 78 81 75 75 81 78 74 71 72 70 69 71 70 68 66 68 66 67 65 66 69
62 62 62 61 61 61 61 61 61 61 61 61 61 61 62 62 61 81 77 80 82 81 70 66 71 75 78 79 71 78 78 74 73 70 70 71 72 68 67 67 68 63 67 65 63 61 60
62 61 61 61 61 61 61 60 61 61 61 61 61 61 61 56 80 78 78 82 82 79 55 68 71 83 79 73 73 71 77 75 69 71 69 66 66 65 64 67 67 63 65 63 62 61 62
62 61 61 61 61 61 60 61 61 61 61 61 61 61 61 70 80 78 81 81 79 65 54 63 71 69 70 72 71 73 73 76 73 68 70 68 70 68 68 66 66 66 63 63 62 60 52
61 61 61 61 61 61 61 61 61 62 62 61 61 61 64 79 78 80 81 78 66 59 67 62 64 68 69 67 67 67 66 67 64 60 61 65 65 67 67 62 65 63 61 55 52 50 55
61 61 60 60 60 61 61 61 62 62 62 61 61 62 68 77 81 79 79 72 58 64 65 66 66 66 64 66 65 65 64 63 63 63 62 61 56 63 65 64 62 62 61 56 47 53 57
61 61 60 60 60 60 61 61 62 62 61 60 59 79 81 78 78 80 75 64 63 65 67 64 64 62 63 64 63 64 63 63 61 62 58 61 59 62 62 64 63 60 56 61 56 61 53
61 61 60 59 59 59 60 61 61 62 61 59 80 80 77 79 79 79 71 62 64 64 65 64 61 64 61 63 60 62 62 60 58 59 62 61 55 60 60 62 62 60 63 55 57 48 48
61 61 60 60 59 59 59 60 61 61 61 59 79 75 77 80 81 76 66 64 62 63 64 62 63 61 63 61 62 62 61 57 58 58 60 60 58 55 58 57 60 57 58 57 56 57 50
61 61 60 60 59 58 59 59 60 60 60 60 79 70 78 81 71 75 69 64 55 62 64 63 63 62 62 61 60 60 59 58 58 59 57 59 58 56 59 59 59 59 59 60 52 53 55
61 61 60 60 59 58 58 58 59 59 57 81 76 74 80 79 66 68 63 60 61 60 61 61 60 60 62 60 56 58 57 55 56 57 56 58 57 52 53 54 57 54 60 59 59 52 47
61 60 60 60 59 58 58 58 58 59 59 73 75 68 73 75 73 69 64 62 58 59 60 61 61 61 59 58 59 56 56 54 55 57 52 54 56 54 50 53 54 53 55 56 55 48 52
60 60 60 60 59 58 58 58 57 59 59 73 75 68 65 67 68 68 67 64 60 56 60 62 59 60 60 57 57 56 57 54 54 54 55 56 52 56 57 57 56 54 53 56 52 54 50
60 60 60 60 59 58 58 57 56 56 57 75 73 70 69 68 66 67 57 63 62 58 61 59 58 60 60 58 58 56 57 57 57 55 55 55 50 51 49 54 50 48 52 54 54 55 54
60 59 59 59 59 58 58 57 56 55 56 78 72 71 70 56 66 66 65 63 61 63 59 61 60 60 57 58 60 60 61 59 59 56 54 52 50 47 45 50 51 46 55 57 57 58 56
60 59 59 59 58 58 58 58 57 55 56 76 71 74 70 64 65 66 62 62 61 61 59 59 61 59 56 61 61 61 59 56 57 54 56 52 50 49 41 47 38 55 63 60 53 55 57
60 60 59 59 58 58 58 58 58 56 55 69 68 70 72 66 68 62 61 60 60 59 58 58 57 59 62 58 55 52 51 50 51 51 51 53 51 44 38 43 50 55 51 52 50 51 60
60 60 59 59 58 58 57 57 57 56 55 66 61 62 68 67 64 66 62 63 62 61 57 54 57 61 59 58 54 42 47 53 47 45 49 49 51 46 46 33 33 51 52 56 54 45 59
59 60 59 59 58 58 58 57 57 56 55 66 62 62 64 65 64 65 63 61 65 63 62 57 55 54 57 56 50 46 49 52 47 47 42 44 45 39 42 37 44 58 55 55 42 47 59
59 59 59 59 59 58 58 57 57 57 56 64 62 64 63 67 62 63 63 61 60 63 60 58 55 54 54 50 51 52 48 53 49 54 48 46 43 42 44 38 34 58 52 48 56 58 58
58 58 57 58 57 58 57 57 57 57 56 58 62 65 63 64 60 61 61 61 60 60 64 59 60 59 62 56 56 55 47 50 47 44 54 44 52 48 50 46 60 60 56 60 60 57 57

GFSGBSN_sfc_temp_048.txt.gz
Temp
65 65 65 64 65 64 64 65 64 64 64 64 65 65 65 65 65 65 65 65 66 66 66 66 66 67 70 73 78 89 83 85 88 90 87 84 82 80 75 79 79 75 75 78 76 75 74
65 65 65 64 64 64 63 63 64 63 64 64 64 64 64 64 65 65 65 65 65 65 65 66 66 66 69 70 89 91 89 88 88 88 86 85 82 83 79 77 75 77 77 75 75 74 73
65 64 64 64 64 64 63 63 63 63 63 63 63 64 64 64 64 64 64 64 64 65 65 65 66 71 76 76 90 90 90 86 88 86 82 84 85 80 80 74 79 78 70 71 72 73 71
64 64 64 64 64 64 63 63 62 63 63 63 63 64 64 64 64 63 64 64 64 64 65 66 66 72 75 88 89 89 90 87 89 88 85 84 84 81 78 78 76 71 70 59 71 72 70
64 64 64 64 63 63 63 63 63 63 62 63 63 63 64 63 63 63 63 63 64 65 66 67 69 74 73 82 84 88 88 84 85 86 84 87 82 76 75 67 64 67 59 63 63 73 70
64 64 63 63 63 63 63 63 63 62 63 63 63 63 63 63 62 63 63 63 66 66 70 77 80 74 79 78 83 85 88 86 81 80 79 76 73 67 67 65 54 60 61 66 63 66 68
64 64 63 63 63 63 62 62 62 62 62 62 62 62 62 62 62 62 63 68 70 69 76 74 77 76 79 84 86 84 86 83 81 76 67 72 64 60 67 69 68 66 64 62 67 68 63
63 63 63 62 62 62 62 62 62 62 62 62 62 62 62 62 62 61 63 73 73 76 69 79 79 79 83 85 76 80 86 75 74 66 73 66 59 69 72 70 67 66 63 62 66 68 62
63 63 62 62 62 62 62 62 62 61 62 62 62 62 62 62 61 62 72 77 82 82 71 73 79 78 78 81 76 74 79 77 72 69 69 63 68 72 70 67 65 64 61 61 60 64 65
63 62 62 62 62 62 61 61 61 61 61 62 62 61 62 62 58 78 76 81 82 81 64 64 70 75 78 79 70 79 79 73 72 67 69 68 71 68 65 64 67 58 65 64 62 56 49
62 62 62 61 61 61 61 61 61 61 61 61 61 61 61 58 65 76 77 82 82 76 50 69 70 83 80 73 72 71 78 74 67 69 66 63 65 63 62 65 67 59 63 61 60 54 52
62 61 61 61 61 61 61 61 61 61 61 61 61 61 61 66 70 78 81 81 76 60 50 63 71 69 69 72 72 73 73 75 73 67 68 65 70 67 65 67 66 65 60 59 57 52 41
62 61 61 61 61 61 61 61 62 62 62 61 61 61 61 75 73 80 80 75 60 54 69 61 64 68 68 67 68 68 67 64 60 55 56 64 64 66 66 61 63 61 53 43 40 40 42
61 61 60 60 60 61 61 62 62 62 62 61 61 61 68 78 80 79 76 67 53 65 64 69 68 67 64 68 66 66 64 60 63 61 56 55 51 61 66 61 56 58 53 44 38 40 45
61 61 60 60 60 60 61 62 62 62 62 61 59 71 77 78 78 78 70 58 57 63 68 65 65 61 62 64 63 63 62 61 59 60 52 54 52 61 63 64 60 56 48 54 48 52 44
61 61 60 59 59 59 61 62 62 62 62 59 72 76 75 80 80 75 66 60 62 65 67 66 60 64 60 61 59 61 61 59 58 59 59 56 49 60 59 61 60 54 58 46 46 38 36
61 61 60 59 59 58 59 61 62 62 61 59 70 71 75 80 79 71 61 60 62 65 65 62 62 61 63 61 61 61 59 57 59 58 59 56 53 51 56 53 53 51 50 51 49 46 38
61 61 60 60 58 58 59 60 61 61 60 60 73 65 76 79 65 70 65 64 56 63 65 64 63 62 61 61 60 59 58 56 58 59 56 55 50 47 52 57 59 55 53 53 42 41 43
61 61 61 60 59 58 58 59 60 60 57 71 70 69 77 77 61 65 63 61 63 61 62 61 61 61 62 60 53 57 57 55 56 56 52 53 49 42 44 49 53 50 55 54 51 44 37
61 60 61 60 59 58 57 58 59 59 59 67 71 63 69 71 71 66 64 62 58 60 61 63 62 62 59 57 58 55 55 54 55 57 54 52 50 47 40 45 50 47 52 54 49 35 40
60 60 60 60 59 58 58 57 58 59 59 68 71 65 64 63 66 67 67 64 60 56 61 62 59 59 59 55 56 55 57 52 54 53 53 51 45 50 51 53 53 51 51 51 48 49 40
59 60 60 59 59 58 58 57 57 57 57 69 66 66 67 66 68 67 57 62 62 59 61 58 57 61 59 56 55 54 56 55 54 53 52 52 44 47 44 54 50 47 50 50 50 51 50
59 59 59 59 59 58 58 57 56 56 57 72 71 71 66 56 65 64 62 63 62 62 60 62 62 59 57 56 59 58 57 57 56 53 50 49 44 40 36 48 47 40 49 50 49 52 51
59 59 59 59 58 58 58 58 57 56 55 69 67 69 65 61 63 63 63 63 62 61 58 60 62 58 55 61 59 58 57 56 56 53 53 48 45 41 33 40 29 48 55 54 51 52 52
60 59 59 58 58 58 58 58 58 57 56 64 63 62 64 61 65 63 62 61 59 60 59 58 58 59 60 57 51 48 47 48 51 53 49 50 45 36 31 31 43 49 49 48 45 45 53
60 59 59 58 58 58 57 57 58 57 56 63 59 60 61 59 59 67 61 62 57 57 55 54 58 60 57 53 49 37 38 48 41 43 48 49 46 38 35 27 25 45 50 53 50 34 52
60 59 59 58 58 57 58 58 57 57 57 63 61 62 60 59 61 61 58 57 62 60 54 55 54 52 55 49 42 40 42 50 40 42 35 38 37 32 33 31 37 51 51 51 33 36 50
59 59 59 59 58 57 57 57 57 57 57 59 59 62 59 60 58 63 63 59 58 58 54 54 52 52 49 44 43 44 40 46 43 47 42 38 35 34 35 31 28 52 48 41 47 50 51
59 58 58 59 58 57 57 57 57 57 57 57 58 63 62 57 54 62 60 60 59 58 55 56 54 55 55 49 49 46 41 42 42 35 49 37 45 38 40 38 52 53 51 54 52 49 48